UAAA

Almaty International Airport

Airport
ICAO code
UAAA
IATA Code
ALA
Summary
ICAO Region
APAC
ICAO Territory
Location

Almaty,

Serving
Almaty
Elevation
2234 ft
Coordinates
43° 21' 6" N , 77° 2' 11" E
KCC
Airport BS
Bird Strike
Airport WX
Fog
Metar
Observation
UAAA 061500Z VRB01MPS 0100 R23R/0400N R23L/0400N FZFG VV001 M02/M02 Q1023 NOSIG RMK QBB030
Station
Almaty
Date/Time
2023-02-06 15:00:00
Lowest cloud amount
n/a
Temperature
-2°C
Dew point
-2°C
Humidity
100%
QNH
1023 hPa
Weather condition
n/a

Description

International airport serving the city of Almaty.

Climatology

Cold Semi-arid climate (Köppen climate classification BSk). - Hot, sometimes extremely hot summers and cold, sometimes very cold winters. Some snowfall during the winter. Areas featuring cold semi-arid climates are sometimes subject to major temperature swings during a 24 hour period.

Runways

Designator Length Width Surface Rops
5/23 4397 45 ASP Yes/Yes

Airport map

Aerial View

Airport accidents

SKYbrary Partners:

Safety knowledge contributed by: